Flag for Canada Weather past 2 weeks in Delta, British Columbia, Canada

Now
59 °F

Light rain. Fog.


Feels Like: 58 °F
Forecast: 59 / 67 °F
Wind: 8 mph from South

Location: Vancouver International Airport

Current Time: Aug 28, 2015 at 8:19:25 AM

Latest Report: Aug 28, 2015 at 8:00 AM


Visibility: 3 mi

Pressure: 29.94 "Hg

Humidity: 94%

Dew point: 57 °F

Location of DeltaLocation

Historic Weather in Delta — Graph

°F

Delta temperature yesterday

Maximum temperature yesterday: 75 °F (at 12:00 PM)
Minimum temperature yesterday: 61 °F (at 12:00 AM)
Average temperature yesterday: 68 °F

Past Weeks' High & Low Weather Summary

 TemperatureHumidityPressure
High75 °F (Aug 13, 11:00 AM)94% (Aug 14, 3:00 AM)30.27 "Hg (Aug 14, 3:00 AM)
Low54 °F (Aug 23, 4:00 AM)41% (Aug 24, 5:00 PM)29.80 "Hg (Aug 19, 8:00 PM)
Average65 °F73%30.01 "Hg
* Reported Aug 13 7:00 AM — Aug 28 7:00 AM, Delta, Weather by CustomWeather, © 2015

Note: Actual official high and low records may vary slightly from our data, if they occured in-between our weather recording intervals... More about our weather records

Advertising

Delta weather history for previous 24 hours

 ConditionsComfort  
Time TempWeatherWind HumidityBarometerVisibility
7:00 AM
Fri, Aug 28
61 °FLight rain. Fog.10 mph94%29.93 "Hg5 mi
6:00 AM61 °FLight rain. Mostly cloudy.9 mph94%29.93 "Hg12 mi
5:00 AM63 °FLight rain. Overcast.8 mph83%29.93 "Hg12 mi
4:00 AM64 °FLight rain. Mostly cloudy.12 mph73%29.92 "Hg12 mi
3:00 AM64 °FLight rain. Low clouds.6 mph73%29.93 "Hg15 mi
2:00 AM64 °FLow clouds.8 mph83%29.95 "Hg15 mi
1:45 AM64 °FLight rain. Mostly cloudy.5 mph78%29.96 "Hg15 mi
1:00 AM68 °FLight rain. Mostly cloudy.2 mph60%29.96 "Hg20 mi
12:00 AM70 °FOvercast.7 mph53%29.94 "Hg20 mi
11:00 PM
Thu, Aug 27
68 °FOvercast.7 mph56%29.93 "Hg20 mi
10:00 PM68 °FMostly cloudy.9 mph60%29.93 "Hg20 mi
9:00 PM72 °FCloudy.5 mph47%29.93 "Hg20 mi
8:00 PM73 °FBroken clouds.6 mph41%29.93 "Hg20 mi
7:00 PM72 °FBroken clouds.3 mph65%29.93 "Hg20 mi
6:00 PM73 °FScattered clouds.7 mph57%29.95 "Hg20 mi
5:00 PM72 °FScattered clouds.7 mph65%29.98 "Hg20 mi
4:00 PM73 °FScattered clouds.6 mph61%30.00 "Hg20 mi
3:00 PM73 °FPartly sunny.6 mph61%30.02 "Hg20 mi
2:00 PM72 °FPartly sunny.9 mph65%30.04 "Hg20 mi
1:00 PM73 °FPartly sunny.10 mph61%30.05 "Hg20 mi
12:00 PM75 °FPartly sunny.8 mph44%30.06 "Hg20 mi
11:00 AM72 °FPartly sunny.10 mph50%30.07 "Hg20 mi
10:00 AM70 °FPartly sunny.6 mph57%30.07 "Hg20 mi
9:00 AM68 °FBroken clouds.9 mph60%30.06 "Hg20 mi
8:00 AM64 °FBroken clouds.7 mph68%30.06 "Hg20 mi
Weather by CustomWeather, © 2015

See weather overviewHow to use our weather pages